Temp
28 29 29 29 28 28 29 29 29 29 28 27 30 29 30 27 27 27 26 25 25 24 24 23 22 21 21 20 19 18 18 17 17 17 17 18 18 18 18 18 18 17 18 18
28 29 28 28 28 29 29 29 29 30 29 29 31 31 31 30 27 27 27 26 26 25 24 23 22 22 21 20 19 18 18 17 19 17 18 18 18 19 19 18 18 18 18 18
29 29 27 28 28 28 29 29 29 28 29 31 30 31 31 30 28 27 27 27 26 26 25 24 23 22 22 21 20 19 20 18 19 18 17 17 17 18 18 19 18 18 18 19
28 26 27 27 28 28 29 28 28 28 29 29 31 30 31 31 30 29 28 27 27 26 25 25 24 23 22 22 21 20 21 20 19 19 18 18 19 19 19 19 19 19 18 18
25 26 27 27 27 27 28 27 27 28 28 30 30 30 32 31 31 31 30 29 28 27 26 26 25 24 23 23 22 20 20 21 20 19 19 18 19 20 20 20 19 18 18 18
26 24 26 26 26 26 26 27 28 28 29 28 30 31 31 32 32 32 31 30 29 28 27 26 25 25 24 23 23 22 20 22 21 20 20 18 18 20 20 20 20 19 19 19
25 25 25 25 26 27 27 28 28 28 28 29 32 31 31 32 31 29 29 28 28 28 28 27 26 25 24 23 23 22 20 22 22 21 20 20 18 18 19 19 19 20 20 20
26 24 25 25 25 25 26 27 28 26 29 30 28 28 30 31 28 27 27 27 26 26 26 28 27 26 25 24 23 23 21 21 22 22 21 21 20 19 19 19 20 20 21 21
25 25 24 24 24 25 25 25 26 26 28 26 29 30 30 30 29 27 27 26 25 25 25 25 25 27 26 24 23 23 22 20 23 22 22 21 21 20 19 20 19 20 20 21
23 23 24 24 24 24 24 25 25 26 24 25 29 27 28 29 26 27 27 26 25 24 24 25 25 24 26 26 24 23 22 21 20 22 22 22 21 21 20 19 19 19 20 19
24 23 23 23 24 24 25 24 24 26 26 26 27 28 28 26 26 26 26 25 25 23 23 23 24 24 26 26 25 24 23 22 21 21 22 22 22 21 21 19 19 19 19 19
22 23 23 24 23 22 23 24 24 25 25 25 25 26 29 26 26 25 25 24 24 23 22 22 22 22 25 26 25 24 23 22 21 21 21 23 22 22 20 21 19 19 19 19
22 22 22 23 23 22 22 23 24 24 24 23 24 26 27 26 26 24 23 23 23 22 21 21 21 20 21 25 25 24 23 23 22 20 20 20 20 20 20 20 19 19 19 19
18 22 21 22 23 23 22 22 22 22 22 24 25 25 26 26 25 24 23 22 21 21 20 20 19 18 18 21 23 23 23 23 22 21 20 20 20 21 20 20 20 20 19 19
20 19 21 21 21 22 22 21 22 22 22 22 23 24 24 24 24 22 21 21 21 20 19 19 18 17 16 18 21 22 22 22 22 21 20 20 20 20 21 20 20 20 20 19
20 18 19 19 20 20 20 21 21 21 21 22 22 22 25 23 23 22 20 20 20 20 19 18 18 17 15 16 19 20 21 21 20 21 20 20 20 19 19 20 21 21 21 21
19 19 18 19 20 19 19 21 21 22 22 22 21 23 23 22 21 20 20 19 19 19 18 17 17 16 15 15 16 18 19 19 20 19 20 19 19 19 19 19 19 19 19 20
18 17 18 18 19 17 21 21 21 20 21 21 21 21 18 17 18 18 19 18 18 16 15 14 15 15 14 15 15 16 17 19 20 18 19 18 18 18 19 18 18 19 19 19
17 18 18 17 19 20 20 20 19 19 19 20 18 17 16 16 15 18 19 16 15 15 15 14 13 13 14 15 15 16 17 18 18 18 18 17 18 19 21 20 19 18 18 19
17 16 17 18 16 16 19 19 17 17 16 17 15 15 15 15 16 18 16 14 14 14 14 13 12 13 14 15 15 16 17 17 17 18 18 17 18 18 19 20 20 18 17 18
17 17 17 18 17 18 19 16 16 14 16 14 14 14 14 15 15 14 13 13 14 13 13 12 12 13 15 15 14 16 16 17 17 17 17 17 18 18 18 19 18 17 17 18
16 16 18 17 16 16 16 16 14 15 14 13 13 13 13 13 13 13 13 13 13 12 12 11 12 13 15 16 14 16 16 16 16 17 17 18 17 17 17 17 16 19 17 17
15 16 16 16 17 17 16 15 14 13 12 12 12 12 12 12 13 13 13 12 12 11 10 9 10 11 11 13 14 14 15 15 15 15 16 16 16 16 16 18 16 15 15 15
17 15 15 15 17 16 15 14 13 12 10 9 10 11 10 11 11 11 10 11 11 10 9 8 8 8 10 12 13 14 13 13 14 15 15 15 14 14 15 15 14 15 15 15
17 15 15 16 16 16 15 14 11 9 9 9 9 9 9 10 11 10 9 9 9 9 10 7 7 7 9 12 10 12 12 13 12 13 13 14 13 13 13 14 14 13 13 14
16 16 16 16 16 15 14 12 9 8 7 8 8 8 8 8 8 8 7 7 8 8 9 8 7 8 8 8 10 12 13 13 12 13 13 14 13 13 14 14 13 13 14 15
Height
1522 1517 1516 1515 1518 1519 1517 1516 1519 1519 1523 1524 1514 1515 1513 1520 1523 1525 1530 1534 1538 1540 1544 1548 1552 1555 1559 1562 1563 1566 1568 1570 1573 1576 1581 1584 1586 1589 1591 1594 1595 1596 1598 1601
1522 1517 1517 1523 1520 1519 1516 1518 1516 1514 1516 1518 1509 1508 1505 1510 1518 1521 1525 1529 1533 1537 1540 1544 1548 1551 1555 1558 1561 1563 1566 1569 1571 1575 1579 1582 1585 1587 1589 1591 1592 1594 1596 1599
1515 1515 1525 1523 1521 1522 1516 1520 1517 1523 1515 1507 1507 1503 1504 1508 1513 1517 1520 1524 1528 1531 1535 1540 1543 1546 1550 1555 1557 1560 1563 1566 1569 1573 1576 1579 1582 1584 1586 1588 1590 1591 1594 1596
1518 1527 1527 1524 1522 1525 1520 1520 1522 1521 1521 1520 1508 1517 1502 1499 1506 1510 1513 1517 1522 1527 1531 1535 1539 1543 1545 1549 1554 1557 1559 1563 1566 1569 1573 1575 1578 1581 1583 1585 1588 1590 1591 1594
1532 1528 1526 1526 1527 1527 1521 1524 1523 1521 1520 1515 1511 1518 1496 1499 1500 1499 1505 1511 1516 1522 1527 1530 1533 1538 1542 1546 1549 1552 1555 1558 1562 1565 1569 1572 1575 1578 1581 1583 1585 1587 1588 1592
1529 1534 1531 1530 1530 1529 1528 1523 1518 1516 1515 1523 1507 1506 1502 1491 1495 1494 1502 1506 1512 1516 1520 1525 1529 1533 1536 1540 1543 1547 1549 1552 1556 1559 1563 1566 1571 1575 1577 1579 1582 1584 1587 1589
1530 1531 1533 1534 1528 1527 1524 1518 1524 1525 1520 1517 1487 1499 1498 1488 1497 1509 1510 1511 1513 1512 1513 1517 1521 1525 1530 1533 1537 1541 1543 1544 1549 1553 1557 1560 1565 1569 1574 1576 1579 1581 1584 1586
1530 1539 1533 1536 1535 1534 1529 1526 1522 1533 1516 1504 1508 1514 1498 1493 1507 1512 1512 1514 1515 1516 1514 1512 1514 1518 1522 1526 1530 1534 1536 1538 1542 1547 1550 1555 1559 1564 1568 1572 1575 1577 1580 1582
1533 1533 1536 1538 1538 1536 1529 1532 1525 1528 1513 1526 1505 1496 1496 1498 1505 1511 1512 1514 1516 1516 1514 1514 1513 1511 1513 1517 1520 1524 1530 1532 1535 1540 1545 1549 1553 1557 1562 1566 1569 1573 1575 1579
1538 1540 1535 1536 1538 1537 1533 1531 1532 1525 1539 1533 1501 1510 1504 1496 1510 1512 1512 1513 1515 1515 1513 1511 1509 1507 1504 1506 1511 1517 1521 1524 1528 1533 1537 1542 1546 1550 1554 1559 1563 1566 1571 1572
1539 1541 1536 1539 1534 1529 1530 1531 1531 1522 1518 1522 1517 1502 1495 1507 1510 1510 1510 1510 1511 1511 1510 1508 1505 1501 1496 1496 1502 1506 1511 1516 1519 1524 1529 1534 1538 1543 1547 1551 1555 1559 1564 1567
1544 1536 1539 1532 1533 1539 1536 1527 1527 1524 1525 1521 1520 1513 1494 1505 1509 1510 1509 1511 1511 1511 1509 1506 1503 1499 1491 1492 1496 1500 1504 1508 1511 1516 1521 1526 1532 1536 1540 1543 1548 1552 1555 1560
1544 1537 1537 1531 1534 1537 1533 1530 1527 1527 1524 1527 1525 1505 1499 1503 1506 1512 1513 1509 1509 1509 1507 1505 1500 1494 1491 1492 1493 1495 1499 1503 1507 1509 1513 1520 1524 1528 1532 1537 1540 1545 1548 1552
1550 1539 1540 1533 1526 1529 1533 1533 1531 1531 1530 1519 1507 1504 1498 1501 1506 1510 1512 1511 1509 1507 1505 1502 1499 1497 1494 1489 1489 1491 1494 1497 1501 1504 1506 1510 1514 1518 1523 1527 1532 1536 1540 1544
1546 1544 1538 1534 1533 1531 1531 1531 1528 1528 1527 1527 1509 1507 1507 1508 1510 1510 1511 1510 1507 1504 1503 1500 1497 1492 1489 1487 1486 1488 1490 1492 1495 1497 1499 1501 1505 1511 1515 1520 1523 1527 1531 1536
1544 1545 1543 1541 1533 1532 1532 1528 1526 1525 1523 1518 1515 1509 1508 1507 1507 1508 1509 1508 1506 1502 1500 1497 1494 1491 1486 1483 1483 1483 1484 1487 1489 1492 1493 1495 1498 1503 1508 1511 1515 1519 1522 1525
1544 1543 1544 1537 1530 1535 1535 1520 1519 1515 1513 1513 1512 1504 1506 1508 1509 1508 1506 1506 1503 1500 1498 1495 1491 1488 1483 1479 1478 1478 1478 1477 1484 1487 1490 1491 1490 1493 1498 1504 1510 1513 1515 1518
1545 1547 1541 1538 1533 1541 1515 1518 1517 1515 1513 1512 1509 1509 1514 1516 1511 1508 1503 1503 1499 1499 1496 1493 1488 1484 1480 1475 1472 1474 1473 1473 1472 1475 1487 1484 1483 1484 1489 1496 1502 1504 1508 1510
1546 1542 1538 1541 1527 1519 1518 1516 1520 1519 1515 1514 1515 1518 1517 1516 1514 1503 1498 1501 1500 1497 1493 1489 1485 1480 1475 1470 1467 1464 1467 1469 1471 1473 1478 1476 1474 1473 1477 1483 1491 1496 1500 1502
1544 1546 1544 1535 1540 1535 1517 1523 1529 1529 1520 1519 1521 1518 1516 1513 1505 1498 1497 1499 1497 1494 1489 1483 1479 1473 1470 1466 1464 1459 1456 1456 1460 1464 1467 1471 1470 1471 1469 1470 1475 1487 1490 1492
1538 1539 1537 1529 1528 1522 1519 1528 1531 1533 1521 1522 1520 1517 1513 1509 1506 1502 1499 1495 1492 1488 1483 1478 1472 1467 1463 1461 1459 1457 1454 1453 1453 1455 1458 1462 1466 1467 1466 1469 1474 1474 1478 1484
1538 1537 1528 1527 1531 1528 1528 1528 1531 1524 1521 1518 1514 1509 1505 1501 1498 1496 1493 1489 1485 1482 1477 1471 1465 1460 1457 1455 1455 1452 1450 1448 1450 1452 1455 1457 1462 1465 1467 1469 1470 1462 1450 1478
1541 1535 1534 1533 1521 1521 1526 1526 1525 1523 1518 1515 1510 1505 1501 1496 1492 1489 1486 1483 1480 1477 1473 1467 1460 1456 1453 1450 1452 1447 1447 1445 1447 1449 1451 1454 1459 1462 1464 1463 1463 1470 1472 1471
1532 1536 1535 1533 1523 1524 1524 1523 1521 1520 1516 1510 1506 1501 1496 1490 1486 1482 1480 1477 1475 1473 1468 1463 1456 1452 1449 1445 1448 1447 1444 1447 1446 1447 1449 1453 1458 1459 1461 1461 1465 1467 1466 1467
1531 1535 1530 1526 1520 1520 1519 1520 1519 1515 1509 1503 1498 1494 1489 1484 1478 1477 1476 1475 1474 1469 1463 1463 1455 1448 1447 1443 1446 1443 1444 1446 1449 1450 1452 1456 1459 1464 1466 1467 1467 1467 1471 1470
1526 1526 1522 1519 1520 1520 1519 1519 1516 1513 1507 1500 1495 1491 1487 1482 1478 1476 1476 1472 1469 1468 1466 1460 1454 1451 1448 1443 1436 1429 1439 1445 1448 1448 1453 1456 1460 1463 1466 1469 1469 1470 1469 1471
Wind_Speed
5 9 9 4 2 2 3 6 2 3 4 6 3 4 3 13 14 15 18 20 20 20 20 20 20 19 18 17 19 19 19 18 18 16 14 13 12 12 13 13 13 14 14 15
8 11 5 2 1 4 6 6 6 5 1 6 7 7 3 11 15 17 18 20 21 20 21 23 23 22 22 21 21 21 20 19 20 17 16 15 13 12 13 14 14 16 17 17
10 8 2 5 4 8 8 11 6 8 9 11 10 12 5 5 10 14 17 19 21 22 24 25 26 26 25 25 24 24 23 21 21 18 16 16 12 13 14 15 16 18 19 20
2 2 3 5 6 7 11 5 9 10 9 8 2 6 5 6 9 13 18 21 22 22 23 25 27 28 28 27 25 25 26 25 23 23 18 19 17 16 15 15 16 17 20 20
5 3 4 5 3 4 4 7 8 10 12 14 14 8 7 3 7 10 14 16 19 21 24 26 27 29 29 28 28 27 27 29 26 26 24 20 19 16 15 15 16 18 19 21
9 3 5 4 2 3 7 9 10 11 11 14 16 16 11 8 4 5 11 3 10 15 21 25 26 27 31 30 30 29 30 32 31 30 28 26 22 18 17 17 18 17 19 21
5 2 3 5 7 6 8 10 8 8 9 11 6 10 9 1 12 10 9 10 10 8 14 20 27 30 31 33 33 32 32 34 34 34 31 30 28 23 19 18 19 19 19 20
6 7 2 4 5 7 7 9 7 7 9 3 5 6 6 7 13 9 11 11 12 13 13 8 18 27 33 34 36 35 34 35 36 36 35 32 30 27 25 22 20 19 19 20
3 3 2 1 5 5 5 7 8 9 11 8 9 7 4 9 8 8 10 12 16 17 17 14 11 18 30 35 39 39 36 35 38 38 37 35 33 33 27 26 25 21 22 19
3 5 3 1 4 6 8 6 6 6 5 8 5 4 9 9 5 8 12 16 18 20 22 21 19 19 23 34 37 39 39 37 35 38 39 38 36 34 34 29 29 26 23 24
3 4 8 4 6 5 5 9 8 8 6 8 8 3 9 4 6 12 17 21 23 24 26 27 26 27 19 28 34 39 40 39 37 39 39 40 38 36 34 33 31 28 27 25
3 4 7 6 3 6 11 8 10 9 8 8 9 12 5 4 9 18 25 25 25 24 27 28 27 28 19 18 29 34 39 40 40 39 43 43 40 37 33 35 33 31 30 29
1 3 7 8 7 6 10 8 7 8 8 13 12 6 5 3 17 20 24 28 28 27 27 28 28 29 23 16 23 30 34 38 35 36 38 38 36 36 36 33 33 33 32 31
2 10 11 12 12 6 11 11 11 12 10 13 18 19 19 17 17 23 25 23 26 28 28 27 28 27 22 17 20 25 30 33 34 34 35 37 38 37 36 36 36 34 36 33
5 10 11 13 14 15 15 16 17 18 18 20 21 24 21 19 21 23 21 21 25 26 28 28 28 29 26 19 18 23 26 29 31 35 33 36 37 38 38 34 36 36 34 34
4 8 8 13 15 15 19 19 19 21 22 24 23 26 20 23 19 18 18 22 25 29 27 28 28 27 28 22 16 23 24 26 28 32 34 35 34 34 37 41 41 39 37 35
8 7 6 12 2 9 12 18 19 20 19 20 20 19 20 19 23 24 23 22 27 27 25 28 28 28 29 28 19 18 24 23 22 26 31 30 32 31 32 33 33 34 37 36
4 6 6 9 8 15 4 6 10 12 14 17 21 17 18 21 25 27 21 26 20 22 23 25 28 28 28 31 24 20 19 24 18 26 31 28 27 29 27 29 30 37 34 34
5 6 6 6 10 14 17 7 8 12 16 18 12 15 17 18 23 20 14 9 18 24 27 27 26 27 29 30 27 22 20 24 26 29 27 29 27 22 21 23 30 33 36 35
5 5 7 10 14 12 7 6 9 15 18 5 14 19 21 23 14 12 25 26 28 29 30 31 29 29 31 30 29 22 23 21 24 28 25 25 25 25 27 30 27 32 34 33
7 6 9 9 12 9 7 8 8 11 9 21 24 28 30 21 24 30 29 29 26 28 30 30 31 30 27 30 28 25 23 23 26 27 22 23 23 24 23 25 27 29 29 31
5 4 7 4 9 11 5 13 13 20 33 34 35 37 37 35 32 29 28 27 23 24 26 27 26 24 26 25 27 25 22 25 24 24 23 24 24 28 27 27 37 27 21 21
5 4 7 7 9 22 22 18 20 21 24 26 27 29 30 32 31 31 28 25 19 17 19 21 20 18 18 17 21 16 16 16 22 22 23 24 20 16 19 19 20 19 13 18
6 7 7 10 5 16 22 22 20 23 27 29 27 27 26 28 29 29 26 15 10 11 13 14 10 9 11 16 21 19 17 17 15 14 11 10 8 10 14 18 14 13 10 8
9 2 9 12 15 15 15 19 21 29 26 23 19 19 19 19 20 15 4 4 2 7 14 9 10 8 1 10 10 21 18 17 14 14 13 11 10 9 9 11 11 11 12 7
7 7 7 10 17 14 18 20 19 18 17 14 11 13 12 11 6 1 5 4 6 7 10 12 15 21 23 8 19 16 19 18 15 16 10 7 7 11 11 11 7 11 8 8
Wind_Direction
198 239 209 353 95 350 314 306 9 336 92 312 353 301 248 188 205 201 203 198 202 200 199 197 196 196 195 195 194 199 199 198 197 199 202 203 205 209 210 211 210 207 202 203
214 241 83 255 271 278 289 288 289 276 272 305 306 314 213 187 203 209 206 206 205 203 200 200 199 198 200 201 201 203 205 204 204 203 205 207 211 211 211 211 215 207 208 201
243 79 168 232 226 262 240 284 297 307 313 282 292 271 168 170 195 209 215 215 212 209 205 203 202 203 202 205 205 207 210 208 209 200 206 211 211 204 211 209 212 212 211 209
84 83 242 245 258 287 275 53 295 284 289 278 312 281 171 178 187 209 216 215 216 214 214 213 211 209 207 207 209 209 213 215 214 213 206 206 206 208 211 207 208 209 211 211
104 155 194 240 0 286 309 323 286 284 270 270 249 245 248 222 235 213 217 220 222 221 221 219 217 217 216 212 211 210 214 217 214 218 209 213 206 215 214 207 208 203 216 211
109 118 33 14 218 301 310 274 250 249 250 251 247 259 256 216 232 90 44 184 231 232 230 228 226 221 219 217 215 214 213 219 219 221 221 214 213 207 210 208 210 211 212 217
161 121 110 356 246 195 275 259 256 231 219 250 260 227 244 20 81 60 52 45 27 338 241 235 228 225 223 218 217 214 213 219 220 221 222 221 216 213 213 211 212 213 214 217
227 175 235 16 359 330 308 305 297 276 274 262 96 240 222 113 98 64 56 38 24 13 356 307 241 232 228 223 218 216 215 218 219 220 222 224 224 218 217 223 215 217 216 220
244 182 148 48 319 282 119 245 12 288 247 262 256 197 203 174 102 31 28 18 10 1 356 347 314 262 235 227 222 216 215 217 220 221 224 225 225 220 218 215 221 218 216 218
72 270 168 101 259 203 283 7 229 206 263 255 225 239 258 147 24 2 3 4 356 351 347 342 331 313 256 231 226 220 217 216 215 219 222 223 225 226 220 216 215 217 221 218
309 265 132 242 207 310 209 225 235 304 280 285 273 245 80 88 359 351 345 348 346 342 340 338 333 329 296 233 224 220 218 216 215 216 219 223 224 225 225 220 219 219 219 223
53 294 273 289 56 272 258 282 264 251 215 241 290 277 136 86 349 346 334 332 336 336 333 333 332 330 321 243 226 222 220 217 217 217 217 226 225 225 223 225 223 222 224 224
64 238 261 200 179 188 230 213 259 273 285 256 268 244 146 303 325 334 332 327 331 334 335 333 333 336 331 272 236 226 223 221 219 217 218 219 219 221 222 223 224 224 226 224
261 266 257 283 336 328 215 232 238 265 269 271 252 270 283 304 323 322 317 319 321 326 331 333 333 334 325 296 247 234 226 223 220 219 216 217 218 220 221 222 225 229 229 225
264 266 274 269 278 275 264 263 265 256 259 262 279 290 296 309 308 313 310 312 316 323 327 331 331 328 328 314 263 243 232 225 221 222 219 219 221 221 222 221 225 228 228 230
235 281 284 275 264 264 267 264 259 256 260 266 275 277 287 296 310 302 305 311 314 315 320 324 326 324 322 313 290 248 238 232 225 223 223 221 222 220 223 226 231 234 238 239
255 278 253 276 11 287 268 257 254 260 261 267 273 293 314 305 304 305 303 304 306 311 319 321 322 318 316 315 290 268 251 235 230 233 229 224 220 220 222 227 227 229 233 236
239 247 274 277 291 262 30 343 309 297 291 295 296 317 336 322 311 305 304 295 306 314 319 321 317 311 310 309 298 275 250 247 240 256 233 224 221 228 235 231 232 234 231 230
245 264 287 268 282 310 296 5 333 317 296 310 313 317 319 323 317 291 290 325 315 311 312 309 313 309 305 298 304 283 259 228 222 219 233 229 217 217 219 235 246 239 233 229
202 248 261 292 291 288 1 20 334 311 278 357 324 314 318 322 306 307 322 313 309 304 307 305 300 301 302 296 289 278 262 254 234 226 228 232 232 229 230 231 237 241 230 225
224 241 256 281 278 274 349 37 321 270 330 322 309 304 303 301 299 297 300 299 298 301 306 306 300 290 295 290 281 283 251 237 229 229 222 225 226 229 222 229 235 235 226 223
266 287 273 271 266 277 17 314 296 306 304 302 297 294 293 293 296 296 297 294 295 302 307 308 304 288 289 278 269 260 249 234 234 233 236 239 237 232 229 234 231 244 220 230
247 257 314 296 303 320 314 302 311 304 297 296 288 291 290 290 289 291 293 291 294 306 307 312 297 284 273 247 237 214 218 203 217 218 217 223 223 217 225 214 182 180 190 178
226 253 257 294 282 316 312 305 298 315 308 300 289 290 295 292 290 287 286 276 294 316 330 326 328 310 274 230 216 187 158 171 170 168 148 152 178 175 162 160 163 179 178 182
288 218 273 279 275 310 303 329 326 321 316 311 303 295 293 301 295 291 278 279 317 12 3 360 42 43 319 211 192 174 177 161 153 147 144 166 153 132 151 185 182 184 198 177
216 248 268 310 317 314 320 328 335 335 341 354 351 344 340 335 325 24 60 112 113 95 35 54 68 71 66 90 106 116 168 187 181 154 163 167 183 204 222 207 178 183 180 198